Showing default

GONETS D1 7, 27058

Orbit data source: Space-Track

GONETS D1 7, 27058 is a payload satellite owned by Gonets (CIS) in LEO that was launched on Fri, 28 Dec 2001 UTC via a TSIKLON-3 launch vehicle from the Plesetsk Missile And Space Complex (PKMTR). Payload-class satellites include a variety of spacecraft equipped with specific instruments for various scientific and technological missions. These include communications satellites like Starlink; space stations such as the ISS; scientific satellites like the Hubble; Earth observation satellites from companies like Planet Labs, Umbra, and HawkEye 360; GPS; miniature CubeSats for education and research; and military/defense satellites.

Loading next visibility...
Identifier
27058, 2001-058D
Orbit
LEO
Last TLE update
5 hours ago
Origin
Manufacturer
NPO PM
Mission
Non-operational Civil Communications
Bus & Motor
STRELA-3, Unknown motor
Mass
225 kg wet, 225 kg dry
Launch date (UTC)
2001-12-28 (24 years ago)
Launch vehicle
TSIKLON-3
Launch site
Plesetsk Missile And Space Complex (PKMTR)
Object type
Payload
Rocket body
Debris
Shape & HBR
Cyl + 1 Ant, 7 m
Radar Cross Section
1.798 m², Medium (>0.1 m² and < 1m²)

Expand to show TLE details & history

TLE from 5 hours ago
0 GONETS D1 7
1 27058U 01058D   25189.09444790  .00000031  00000-0  11586-3 0  9996
2 27058  82.5333  62.6064 0004049  61.5599 298.5899 12.62076343 83874
Epoch: 2025-07-08T02:16Z
TLE epoch observation values (Epoch: 2025-07-08T02:16:00.298Z)
Latitude
-0.00007°
Longitude
102.31078°
Altitude
1,415.605 km
Speed
7.154 km/s
True Right ascension
04h 10m 25s
True Declination
0° 00' 00"
Sunlit
Object was in daylight at epoch
Visualization orbit readout
Latitude
-81.67081°
Longitude
39.19701°
Altitude
1,445.344 km
Speed
7.138 km/s
Apparent Right ascension
06h 44m 06s
Apparent Declination
-68° 55' 35"
Sunlit
Object is in daylight
Visualization observer readout
Local Sidereal Time
19:36:39
Azimuth
170.55° S
Elevation
-60.148°
Doppler factor
1
Orbital elements
Apogee altitude
1,414.863 km
Perigee altitude
1,408.555 km
Semi-major axis
7,789.846 km
Eccentricity
0.0004
Inclination
82.5333°
RAAN
62.6064°
Arg. of periapsis
61.5599°
True anomaly
Unknown
Mean anomaly
298.5899°
Eccentric anomaly
Unknown
Mean motion
3.15682 °/min
Orbital period
114.04 mins
BSTAR
0.00011586
Loading maneuver chart data...
Loading SW <> Apogee altitude chart data...
Loading historical data...
Loading historical data...
Loading historical data...
Loading historical data...
Loading historical data...
Loading historical data...
Loading historical data...

GONETS D1 7 Visibility forecast

Observer location: undefined°, undefined°

Span
Click to sort rows by Start time (UTC) header in descending order
Start Az.
Max El. time (UTC)
Max El. Az.
Max El.
End time (UTC)
End Az.
15 mins2025-07-08 15:40:05.768Z162.483° S2025-07-08 15:48:05.768Z80.608° E38.386°2025-07-08 15:55:05.768Z18.238° NNE
13 mins2025-07-08 17:37:05.768Z234.519° WSW2025-07-08 17:43:05.768Z290.153° WNW27.844°2025-07-08 17:50:05.768Z349.287° N
10 mins2025-07-09 01:44:05.768Z29.411° NE2025-07-09 01:48:05.768Z62.997° ENE19.661°2025-07-09 01:54:05.768Z110.436° ESE
15 mins2025-07-09 03:37:05.768Z349.265° N2025-07-09 03:44:05.768Z283.203° WNW44.415°2025-07-09 03:52:05.768Z180.903° SSW
5 mins2025-07-09 05:36:05.768Z297.76° NW2025-07-09 05:38:05.768Z282.508° WNW13.03°2025-07-09 05:41:05.768Z260.564° W
|